START_TIME,STEP,MOV.,P11,t_acc.,P23,t_acc.,P27,t_acc.,A4,t_acc.
1981-08-30 21:01:04.400 ,0,0,,0,,0,,0,,0
1981-08-30 21:01:09.200 ,0,0,,0,,0,,0,,0
1981-08-30 21:01:14.000 ,0,0,,0,,0,,0,,0
1981-08-30 21:01:18.800 ,0,0,,0,,0,,0,,0
1981-08-30 21:01:23.600 ,0,0,0.,4.8,0.,4.8,0.,4.8,0.,4.8
1981-08-30 21:01:11.600 ,0,0,3.,4.8,0.,4.8,0.,4.8,0.,4.8
1981-08-30 21:01:16.400 ,0,0,2.,4.8,0.,4.8,1.,4.8,0.,4.8
1981-08-30 21:01:21.200 ,0,0,0.,4.8,0.,4.8,0.,4.8,0.,4.8
1981-08-30 21:01:26.000 ,0,0,0.,4.8,0.,4.8,0.,4.8,0.,4.8
1981-08-30 21:01:30.800 ,0,0,0.,4.8,0.,4.8,0.,4.8,0.,4.8
1981-08-30 21:01:35.600 ,5,0,0.,4.8,0.,4.8,0.,4.8,0.,4.8
1981-08-30 21:01:40.400 ,5,0,0.,4.8,0.,4.8,0.,4.8,0.,4.8
1981-08-30 21:01:45.200 ,5,0,0.,4.8,0.,4.8,0.,4.8,0.,4.8
1981-08-30 21:01:50.000 ,5,0,0.,4.8,0.,4.8,0.,4.8,0.,4.8
1981-08-30 21:01:54.800 ,5,0,0.,4.8,0.,4.8,1.,4.8,0.,4.8
1981-08-30 21:01:59.600 ,5,0,1.,4.8,0.,4.8,0.,4.8,0.,4.8
1981-08-30 21:02:04.400 ,5,0,0.,4.8,0.,4.8,0.,4.8,0.,4.8
1981-08-30 21:02:09.200 ,5,0,0.,4.8,0.,4.8,0.,4.8,0.,4.8
1981-08-30 21:02:14.000 ,5,0,1.,4.8,0.,4.8,0.,4.8,0.,4.8
1981-08-30 21:02:18.800 ,5,0,2.,4.8,0.,4.8,1.,4.8,0.,4.8
1981-08-30 21:02:23.600 ,4,0,1.,4.8,0.,4.8,1.,4.8,0.,4.8
1981-08-30 21:02:28.400 ,4,0,0.,4.8,0.,4.8,0.,4.8,0.,4.8
1981-08-30 21:02:33.200 ,4,0,0.,4.8,0.,4.8,0.,4.8,0.,4.8
1981-08-30 21:02:38.000 ,4,0,0.,4.8,0.,4.8,0.,4.8,0.,4.8
1981-08-30 21:02:42.800 ,4,0,0.,4.8,0.,4.8,0.,4.8,0.,4.8
1981-08-30 21:02:47.600 ,4,0,0.,4.8,0.,4.8,0.,4.8,0.,4.8
1981-08-30 21:02:52.400 ,4,0,0.,4.8,0.,4.8,0.,4.8,0.,4.8
1981-08-30 21:02:57.200 ,4,0,1.,4.8,0.,4.8,0.,4.8,0.,4.8
1981-08-30 21:03:02.000 ,4,0,0.,4.8,0.,4.8,0.,4.8,0.,4.8
1981-08-30 21:03:06.800 ,4,0,1.,4.8,0.,4.8,0.,4.8,0.,4.8
1981-08-30 21:03:11.600 ,3,0,0.,4.8,0.,4.8,0.,4.8,0.,4.8
1981-08-30 21:03:16.400 ,3,0,0.,4.8,0.,4.8,1.,4.8,0.,4.8
1981-08-30 21:03:21.200 ,3,0,1.,4.8,0.,4.8,0.,4.8,0.,4.8
1981-08-30 21:03:26.000 ,3,0,0.,4.8,0.,4.8,0.,4.8,0.,4.8
1981-08-30 21:03:30.800 ,3,0,0.,4.8,0.,4.8,0.,4.8,0.,4.8
1981-08-30 21:03:35.600 ,3,0,1.,4.8,0.,4.8,0.,4.8,0.,4.8
1981-08-30 21:03:40.400 ,3,0,0.,4.8,0.,4.8,0.,4.8,0.,4.8
1981-08-30 21:03:45.200 ,3,0,1.,4.8,0.,4.8,0.,4.8,0.,4.8
1981-08-30 21:03:50.000 ,3,0,1.,4.8,0.,4.8,0.,4.8,0.,4.8
1981-08-30 21:03:54.800 ,3,0,0.,4.8,0.,4.8,0.,4.8,0.,4.8
1981-08-30 21:03:59.600 ,2,0,0.,4.8,0.,4.8,0.,4.8,0.,4.8
1981-08-30 21:04:04.400 ,2,0,0.,4.8,0.,4.8,0.,4.8,0.,4.8
1981-08-30 21:04:09.200 ,2,0,1.,4.8,0.,4.8,0.,4.8,0.,4.8
1981-08-30 21:04:14.000 ,2,0,0.,4.8,0.,4.8,0.,4.8,0.,4.8
1981-08-30 21:04:18.800 ,2,0,1.,4.8,0.,4.8,0.,4.8,0.,4.8
1981-08-30 21:04:23.600 ,2,0,0.,4.8,0.,4.8,0.,4.8,0.,4.8
1981-08-30 21:04:28.400 ,2,0,0.,4.8,0.,4.8,0.,4.8,0.,4.8
1981-08-30 21:04:33.200 ,2,0,0.,4.8,0.,4.8,0.,4.8,0.,4.8
1981-08-30 21:04:38.000 ,2,0,0.,4.8,0.,4.8,0.,4.8,0.,4.8
1981-08-30 21:04:42.800 ,2,0,0.,4.8,0.,4.8,0.,4.8,0.,4.8
1981-08-30 21:04:47.600 ,1,0,0.,4.8,0.,4.8,0.,4.8,0.,4.8
1981-08-30 21:04:52.400 ,1,0,1.,4.8,0.,4.8,0.,4.8,0.,4.8
1981-08-30 21:04:57.200 ,1,0,0.,4.8,0.,4.8,0.,4.8,0.,4.8
1981-08-30 21:05:02.000 ,1,0,0.,4.8,0.,4.8,0.,4.8,0.,4.8
1981-08-30 21:05:06.800 ,1,0,1.,4.8,1.,4.8,0.,4.8,0.,4.8
1981-08-30 21:05:11.600 ,1,0,0.,4.8,0.,4.8,0.,4.8,0.,4.8
1981-08-30 21:05:16.400 ,1,0,0.,4.8,0.,4.8,0.,4.8,0.,4.8
1981-08-30 21:05:21.200 ,1,0,0.,4.8,0.,4.8,0.,4.8,0.,4.8
1981-08-30 21:05:26.000 ,1,0,0.,4.8,0.,4.8,1.,4.8,0.,4.8
1981-08-30 21:05:30.800 ,1,0,0.,4.8,0.,4.8,0.,4.8,1.,4.8
1981-08-30 21:05:35.600 ,0,0,0.,4.8,0.,4.8,0.,4.8,0.,4.8
1981-08-30 21:05:40.400 ,0,0,1.,4.8,0.,4.8,0.,4.8,0.,4.8
1981-08-30 21:05:45.200 ,0,0,0.,4.8,0.,4.8,0.,4.8,0.,4.8
1981-08-30 21:05:50.000 ,0,0,,0,,0,,0,,0
1981-08-30 21:05:54.800 ,0,0,1.,4.8,0.,4.8,1.,4.8,0.,4.8
1981-08-30 21:05:59.600 ,0,0,0.,4.8,0.,4.8,0.,4.8,0.,4.8
1981-08-30 21:06:04.400 ,0,0,1.,4.8,0.,4.8,0.,4.8,0.,4.8
1981-08-30 21:06:09.200 ,0,0,0.,4.8,0.,4.8,0.,4.8,0.,4.8
1981-08-30 21:06:14.000 ,0,0,0.,4.8,0.,4.8,0.,4.8,0.,4.8
1981-08-30 21:06:18.800 ,0,0,0.,4.8,0.,4.8,0.,4.8,0.,4.8
1981-08-30 21:06:23.600 ,0,0,0.,4.8,1.,4.8,0.,4.8,0.,4.8
1981-08-30 21:06:28.400 ,0,0,0.,4.8,0.,4.8,0.,4.8,0.,4.8
1981-08-30 21:06:33.200 ,0,0,0.,4.8,0.,4.8,1.,4.8,0.,4.8
1981-08-30 21:06:38.000 ,0,0,0.,4.8,0.,4.8,0.,4.8,0.,4.8
1981-08-30 21:06:42.800 ,0,0,1.,4.8,0.,4.8,0.,4.8,0.,4.8
1981-08-30 21:06:47.600 ,0,0,2.,4.8,0.,4.8,0.,4.8,0.,4.8
1981-08-30 21:06:52.400 ,0,0,0.,4.8,0.,4.8,0.,4.8,0.,4.8
1981-08-30 21:06:57.200 ,0,0,0.,4.8,0.,4.8,0.,4.8,0.,4.8
1981-08-30 21:07:02.000 ,0,0,0.,4.8,0.,4.8,0.,4.8,0.,4.8
1981-08-30 21:07:06.800 ,0,0,0.,4.8,0.,4.8,0.,4.8,0.,4.8
1981-08-30 21:07:11.600 ,1,0,0.,4.8,0.,4.8,0.,4.8,0.,4.8
1981-08-30 21:07:16.400 ,1,0,0.,4.8,0.,4.8,0.,4.8,0.,4.8
1981-08-30 21:07:21.200 ,1,0,0.,4.8,0.,4.8,0.,4.8,0.,4.8
1981-08-30 21:07:26.000 ,1,0,0.,4.8,0.,4.8,0.,4.8,0.,4.8
1981-08-30 21:07:30.800 ,1,0,0.,4.8,0.,4.8,0.,4.8,0.,4.8
1981-08-30 21:07:35.600 ,1,0,0.,4.8,0.,4.8,0.,4.8,0.,4.8
1981-08-30 21:07:40.400 ,1,0,0.,4.8,0.,4.8,0.,4.8,0.,4.8
1981-08-30 21:07:45.200 ,1,0,0.,4.8,0.,4.8,0.,4.8,0.,4.8
1981-08-30 21:07:50.000 ,1,0,1.,4.8,0.,4.8,0.,4.8,0.,4.8
1981-08-30 21:07:54.800 ,1,0,0.,4.8,0.,4.8,0.,4.8,0.,4.8
1981-08-30 21:07:59.600 ,2,0,0.,4.8,0.,4.8,0.,4.8,0.,4.8
1981-08-30 21:08:04.400 ,2,0,1.,4.8,0.,4.8,0.,4.8,0.,4.8
1981-08-30 21:08:09.200 ,2,0,2.,4.8,0.,4.8,0.,4.8,0.,4.8
1981-08-30 21:08:14.000 ,2,0,1.,4.8,0.,4.8,0.,4.8,0.,4.8
1981-08-30 21:08:18.800 ,2,0,1.,4.8,0.,4.8,0.,4.8,0.,4.8
1981-08-30 21:08:23.600 ,2,0,2.,4.8,0.,4.8,0.,4.8,0.,4.8
1981-08-30 21:08:28.400 ,2,0,0.,4.8,0.,4.8,0.,4.8,0.,4.8
1981-08-30 21:08:33.200 ,2,0,0.,4.8,0.,4.8,0.,4.8,0.,4.8
1981-08-30 21:08:38.000 ,2,0,0.,4.8,0.,4.8,0.,4.8,0.,4.8
1981-08-30 21:08:42.800 ,2,0,1.,4.8,0.,4.8,0.,4.8,0.,4.8
1981-08-30 21:08:47.600 ,3,0,0.,4.8,0.,4.8,0.,4.8,0.,4.8
1981-08-30 21:08:52.400 ,3,0,0.,4.8,0.,4.8,0.,4.8,0.,4.8
1981-08-30 21:08:57.200 ,3,0,0.,4.8,0.,4.8,0.,4.8,0.,4.8
1981-08-30 21:09:02.000 ,3,0,1.,4.8,0.,4.8,0.,4.8,0.,4.8
1981-08-30 21:09:06.800 ,3,0,0.,4.8,0.,4.8,0.,4.8,0.,4.8
1981-08-30 21:09:11.600 ,4,0,1.,4.8,0.,4.8,0.,4.8,0.,4.8
1981-08-30 21:09:16.400 ,4,0,0.,4.8,0.,4.8,0.,4.8,0.,4.8
1981-08-30 21:09:21.200 ,4,0,0.,4.8,0.,4.8,0.,4.8,0.,4.8
1981-08-30 21:09:26.000 ,4,0,0.,4.8,0.,4.8,0.,4.8,0.,4.8
1981-08-30 21:09:30.800 ,4,0,0.,4.8,0.,4.8,0.,4.8,0.,4.8
1981-08-30 21:09:35.600 ,5,0,0.,4.8,0.,4.8,0.,4.8,0.,4.8
1981-08-30 21:09:40.400 ,5,0,0.,4.8,0.,4.8,0.,4.8,0.,4.8
1981-08-30 21:09:45.200 ,5,0,0.,4.8,0.,4.8,0.,4.8,0.,4.8
1981-08-30 21:09:50.000 ,5,0,0.,4.8,0.,4.8,0.,4.8,0.,4.8
1981-08-30 21:09:54.800 ,5,0,1.,4.8,0.,4.8,0.,4.8,0.,4.8
1981-08-30 21:09:59.600 ,6,0,0.,4.8,0.,4.8,0.,4.8,0.,4.8
1981-08-30 21:10:04.400 ,6,0,0.,4.8,0.,4.8,0.,4.8,0.,4.8
1981-08-30 21:10:09.200 ,6,0,0.,4.8,0.,4.8,0.,4.8,0.,4.8
1981-08-30 21:10:14.000 ,6,0,1.,4.8,0.,4.8,0.,4.8,0.,4.8
1981-08-30 21:10:18.800 ,6,0,0.,4.8,0.,4.8,0.,4.8,0.,4.8
1981-08-30 21:10:23.600 ,7,0,0.,4.8,0.,4.8,0.,4.8,0.,4.8
1981-08-30 21:10:28.400 ,7,0,0.,4.8,0.,4.8,0.,4.8,0.,4.8
1981-08-30 21:10:33.200 ,7,0,0.,4.8,0.,4.8,0.,4.8,0.,4.8
1981-08-30 21:10:38.000 ,7,0,1.,4.8,0.,4.8,0.,4.8,0.,4.8
1981-08-30 21:10:42.800 ,7,0,2.,4.8,0.,4.8,0.,4.8,0.,4.8
1981-08-30 21:10:47.600 ,7,0,0.,4.8,0.,4.8,0.,4.8,0.,4.8
1981-08-30 21:10:52.400 ,7,0,1.,4.8,0.,4.8,0.,4.8,0.,4.8
1981-08-30 21:10:57.200 ,7,0,1.,4.8,0.,4.8,0.,4.8,0.,4.8
1981-08-30 21:11:02.000 ,7,0,1.,4.8,0.,4.8,1.,4.8,0.,4.8
1981-08-30 21:11:06.800 ,7,0,0.,4.8,0.,4.8,0.,4.8,0.,4.8
1981-08-30 21:11:11.600 ,6,0,1.,4.8,0.,4.8,0.,4.8,0.,4.8
1981-08-30 21:11:16.400 ,6,0,0.,4.8,0.,4.8,1.,4.8,0.,4.8
1981-08-30 21:11:21.200 ,6,0,0.,4.8,0.,4.8,0.,4.8,0.,4.8
1981-08-30 21:11:26.000 ,6,0,0.,4.8,0.,4.8,0.,4.8,0.,4.8
1981-08-30 21:11:30.800 ,6,0,0.,4.8,0.,4.8,0.,4.8,0.,4.8
1981-08-30 21:11:35.600 ,5,0,1.,4.8,0.,4.8,0.,4.8,0.,4.8
1981-08-30 21:11:40.400 ,5,0,,0,,0,,0,,0
1981-08-30 21:11:45.200 ,5,0,1.,4.8,0.,4.8,0.,4.8,0.,4.8
1981-08-30 21:11:50.000 ,5,0,1.,4.8,0.,4.8,0.,4.8,0.,4.8
1981-08-30 21:11:54.800 ,5,0,0.,4.8,0.,4.8,0.,4.8,0.,4.8
1981-08-30 21:11:59.600 ,4,0,1.,4.8,0.,4.8,0.,4.8,0.,4.8
1981-08-30 21:12:04.400 ,4,0,0.,4.8,0.,4.8,0.,4.8,0.,4.8
1981-08-30 21:12:09.200 ,4,0,1.,4.8,0.,4.8,0.,4.8,0.,4.8
1981-08-30 21:12:14.000 ,4,0,1.,4.8,0.,4.8,0.,4.8,0.,4.8
1981-08-30 21:12:18.800 ,4,0,1.,4.8,0.,4.8,0.,4.8,0.,4.8
1981-08-30 21:12:23.600 ,3,0,0.,4.8,0.,4.8,0.,4.8,0.,4.8
1981-08-30 21:12:28.400 ,3,0,0.,4.8,0.,4.8,0.,4.8,0.,4.8
1981-08-30 21:12:33.200 ,3,0,0.,4.8,0.,4.8,0.,4.8,0.,4.8
1981-08-30 21:12:38.000 ,3,0,2.,4.8,0.,4.8,1.,4.8,0.,4.8
1981-08-30 21:12:42.800 ,3,0,1.,4.8,0.,4.8,0.,4.8,0.,4.8
1981-08-30 21:12:47.600 ,2,0,1.,4.8,0.,4.8,0.,4.8,0.,4.8
1981-08-30 21:12:52.400 ,2,0,1.,4.8,0.,4.8,0.,4.8,0.,4.8
1981-08-30 21:12:57.200 ,2,0,0.,4.8,0.,4.8,0.,4.8,0.,4.8
1981-08-30 21:13:02.000 ,2,0,0.,4.8,0.,4.8,0.,4.8,0.,4.8
1981-08-30 21:13:06.800 ,2,0,0.,4.8,0.,4.8,0.,4.8,0.,4.8
1981-08-30 21:13:11.600 ,1,0,0.,4.8,0.,4.8,0.,4.8,0.,4.8
1981-08-30 21:13:16.400 ,1,0,1.,4.8,0.,4.8,0.,4.8,0.,4.8
1981-08-30 21:13:21.200 ,1,0,1.,4.8,0.,4.8,0.,4.8,0.,4.8
1981-08-30 21:13:26.000 ,1,0,1.,4.8,1.,4.8,0.,4.8,0.,4.8
1981-08-30 21:13:30.800 ,1,0,0.,4.8,0.,4.8,1.,4.8,0.,4.8
1981-08-30 21:13:35.600 ,0,0,0.,4.8,0.,4.8,0.,4.8,0.,4.8
1981-08-30 21:13:40.400 ,0,0,0.,4.8,0.,4.8,1.,4.8,0.,4.8
1981-08-30 21:13:45.200 ,0,0,0.,4.8,0.,4.8,0.,4.8,0.,4.8
1981-08-30 21:13:50.000 ,0,0,0.,4.8,0.,4.8,0.,4.8,0.,4.8
1981-08-30 21:13:54.800 ,0,0,1.,4.8,0.,4.8,0.,4.8,0.,4.8
1981-08-30 21:13:59.600 ,0,0,0.,4.8,1.,4.8,0.,4.8,0.,4.8
1981-08-30 21:14:04.400 ,0,0,1.,4.8,0.,4.8,0.,4.8,0.,4.8
1981-08-30 21:14:09.200 ,0,0,1.,4.8,0.,4.8,0.,4.8,0.,4.8
1981-08-30 21:14:14.000 ,0,0,0.,4.8,0.,4.8,0.,4.8,0.,4.8
1981-08-30 21:14:18.800 ,0,0,0.,4.8,0.,4.8,0.,4.8,0.,4.8
1981-08-30 21:14:23.600 ,1,0,0.,4.8,0.,4.8,0.,4.8,0.,4.8
1981-08-30 21:14:28.400 ,1,0,0.,4.8,0.,4.8,0.,4.8,0.,4.8
1981-08-30 21:14:33.200 ,1,0,0.,4.8,0.,4.8,0.,4.8,0.,4.8
1981-08-30 21:14:38.000 ,1,0,1.,4.8,0.,4.8,0.,4.8,0.,4.8
1981-08-30 21:14:42.800 ,1,0,0.,4.8,0.,4.8,0.,4.8,0.,4.8
1981-08-30 21:14:47.600 ,2,0,0.,4.8,0.,4.8,0.,4.8,0.,4.8
1981-08-30 21:14:52.400 ,2,0,0.,4.8,0.,4.8,1.,4.8,0.,4.8
1981-08-30 21:14:57.200 ,2,0,0.,4.8,0.,4.8,0.,4.8,0.,4.8
1981-08-30 21:15:02.000 ,2,0,0.,4.8,0.,4.8,0.,4.8,0.,4.8
1981-08-30 21:15:06.800 ,2,0,1.,4.8,0.,4.8,0.,4.8,0.,4.8
1981-08-30 21:15:11.600 ,3,0,0.,4.8,0.,4.8,1.,4.8,0.,4.8
1981-08-30 21:15:16.400 ,3,0,0.,4.8,0.,4.8,0.,4.8,0.,4.8
1981-08-30 21:15:21.200 ,3,0,0.,4.8,0.,4.8,0.,4.8,0.,4.8
1981-08-30 21:15:26.000 ,3,0,1.,4.8,0.,4.8,0.,4.8,0.,4.8
1981-08-30 21:15:30.800 ,3,0,0.,4.8,1.,4.8,0.,4.8,0.,4.8
1981-08-30 21:15:35.600 ,3,0,0.,4.8,0.,4.8,0.,4.8,0.,4.8
1981-08-30 21:15:40.400 ,3,0,1.,4.8,0.,4.8,0.,4.8,0.,4.8
1981-08-30 21:15:45.200 ,3,0,1.,4.8,0.,4.8,0.,4.8,0.,4.8
1981-08-30 21:15:50.000 ,3,0,0.,4.8,0.,4.8,0.,4.8,0.,4.8
1981-08-30 21:15:54.800 ,3,0,0.,4.8,0.,4.8,0.,4.8,0.,4.8
1981-08-30 21:15:59.600 ,4,0,0.,4.8,0.,4.8,0.,4.8,0.,4.8
1981-08-30 21:16:04.400 ,4,0,0.,4.8,0.,4.8,1.,4.8,0.,4.8
1981-08-30 21:16:09.200 ,4,0,1.,4.8,0.,4.8,0.,4.8,0.,4.8
1981-08-30 21:16:14.000 ,4,0,0.,4.8,0.,4.8,0.,4.8,0.,4.8
1981-08-30 21:16:18.800 ,4,0,1.,4.8,0.,4.8,0.,4.8,0.,4.8
1981-08-30 21:16:23.600 ,4,0,1.,4.8,0.,4.8,0.,4.8,0.,4.8
1981-08-30 21:16:28.400 ,4,0,0.,4.8,0.,4.8,0.,4.8,0.,4.8
1981-08-30 21:16:33.200 ,4,0,0.,4.8,0.,4.8,0.,4.8,0.,4.8
1981-08-30 21:16:38.000 ,4,0,1.,4.8,0.,4.8,0.,4.8,0.,4.8
1981-08-30 21:16:42.800 ,4,0,0.,4.8,0.,4.8,0.,4.8,0.,4.8
1981-08-30 21:16:47.600 ,5,0,1.,4.8,0.,4.8,0.,4.8,0.,4.8
1981-08-30 21:16:52.400 ,5,0,0.,4.8,0.,4.8,0.,4.8,0.,4.8
1981-08-30 21:16:57.200 ,5,0,0.,4.8,0.,4.8,0.,4.8,0.,4.8
1981-08-30 21:17:02.000 ,5,0,0.,4.8,1.,4.8,0.,4.8,0.,4.8
1981-08-30 21:17:06.800 ,5,0,0.,4.8,0.,4.8,0.,4.8,0.,4.8
1981-08-30 21:17:11.600 ,5,0,0.,4.8,0.,4.8,0.,4.8,0.,4.8
1981-08-30 21:17:16.400 ,5,0,0.,4.8,0.,4.8,0.,4.8,0.,4.8
1981-08-30 21:17:21.200 ,5,0,0.,4.8,0.,4.8,0.,4.8,0.,4.8
1981-08-30 21:17:26.000 ,5,0,2.,4.8,0.,4.8,0.,4.8,0.,4.8
1981-08-30 21:17:30.800 ,5,0,0.,4.8,0.,4.8,0.,4.8,0.,4.8
1981-08-30 21:17:35.600 ,6,0,0.,4.8,0.,4.8,1.,4.8,0.,4.8
1981-08-30 21:17:40.400 ,6,0,0.,4.8,0.,4.8,0.,4.8,0.,4.8
1981-08-30 21:17:45.200 ,6,0,0.,4.8,0.,4.8,0.,4.8,0.,4.8
1981-08-30 21:17:50.000 ,6,0,2.,4.8,0.,4.8,0.,4.8,0.,4.8
1981-08-30 21:17:54.800 ,6,0,0.,4.8,0.,4.8,0.,4.8,0.,4.8
1981-08-30 21:17:59.600 ,6,0,0.,4.8,0.,4.8,0.,4.8,0.,4.8
1981-08-30 21:18:04.400 ,6,0,1.,4.8,0.,4.8,0.,4.8,0.,4.8
1981-08-30 21:18:09.200 ,6,0,0.,4.8,0.,4.8,0.,4.8,0.,4.8
1981-08-30 21:18:14.000 ,6,0,1.,4.8,0.,4.8,0.,4.8,0.,4.8
1981-08-30 21:18:18.800 ,6,0,0.,4.8,0.,4.8,0.,4.8,0.,4.8
1981-08-30 21:18:23.600 ,7,0,1.,4.8,0.,4.8,0.,4.8,0.,4.8
1981-08-30 21:18:28.400 ,7,0,0.,4.8,0.,4.8,0.,4.8,0.,4.8
1981-08-30 21:18:33.200 ,7,0,0.,4.8,0.,4.8,0.,4.8,0.,4.8
1981-08-30 21:18:38.000 ,7,0,0.,4.8,1.,4.8,0.,4.8,0.,4.8
1981-08-30 21:18:42.800 ,7,0,0.,4.8,0.,4.8,0.,4.8,0.,4.8
1981-08-30 21:18:47.600 ,7,0,0.,4.8,0.,4.8,0.,4.8,0.,4.8
1981-08-30 21:18:52.400 ,7,0,0.,4.8,0.,4.8,0.,4.8,0.,4.8
1981-08-30 21:18:57.200 ,7,0,1.,4.8,0.,4.8,0.,4.8,0.,4.8
1981-08-30 21:19:02.000 ,7,0,0.,4.8,0.,4.8,0.,4.8,0.,4.8
1981-08-30 21:19:06.800 ,7,0,0.,4.8,0.,4.8,0.,4.8,0.,4.8
1981-08-30 21:19:11.600 ,7,0,0.,4.8,0.,4.8,0.,4.8,0.,4.8
1981-08-30 21:19:16.400 ,7,0,0.,4.8,0.,4.8,0.,4.8,0.,4.8
1981-08-30 21:19:21.200 ,7,0,1.,4.8,0.,4.8,0.,4.8,0.,4.8
1981-08-30 21:19:26.000 ,7,0,0.,4.8,0.,4.8,0.,4.8,0.,4.8
1981-08-30 21:19:30.800 ,7,0,0.,4.8,0.,4.8,0.,4.8,0.,4.8
1981-08-30 21:19:35.600 ,7,0,0.,4.8,1.,4.8,0.,4.8,0.,4.8
1981-08-30 21:19:40.400 ,7,0,1.,4.8,0.,4.8,0.,4.8,0.,4.8
1981-08-30 21:19:45.200 ,7,0,0.,4.8,0.,4.8,0.,4.8,0.,4.8
1981-08-30 21:19:50.000 ,7,0,0.,4.8,0.,4.8,0.,4.8,0.,4.8
1981-08-30 21:19:54.800 ,7,0,2.,4.8,0.,4.8,0.,4.8,0.,4.8
1981-08-30 21:19:59.600 ,6,0,1.,4.8,0.,4.8,0.,4.8,0.,4.8
1981-08-30 21:20:04.400 ,6,0,1.,4.8,0.,4.8,0.,4.8,0.,4.8
1981-08-30 21:20:09.200 ,6,0,0.,4.8,0.,4.8,1.,4.8,0.,4.8
1981-08-30 21:20:14.000 ,6,0,1.,4.8,0.,4.8,0.,4.8,0.,4.8
1981-08-30 21:20:18.800 ,6,0,0.,4.8,0.,4.8,0.,4.8,0.,4.8
1981-08-30 21:20:23.600 ,6,0,0.,4.8,0.,4.8,0.,4.8,0.,4.8
1981-08-30 21:20:28.400 ,6,0,0.,4.8,0.,4.8,0.,4.8,0.,4.8
1981-08-30 21:20:33.200 ,6,0,0.,4.8,0.,4.8,1.,4.8,0.,4.8
1981-08-30 21:20:38.000 ,6,0,1.,4.8,0.,4.8,0.,4.8,0.,4.8
1981-08-30 21:20:42.800 ,6,0,0.,4.8,0.,4.8,0.,4.8,0.,4.8
1981-08-30 21:20:47.600 ,5,0,0.,4.8,0.,4.8,0.,4.8,0.,4.8
1981-08-30 21:20:52.400 ,5,0,1.,4.8,0.,4.8,1.,4.8,0.,4.8
1981-08-30 21:20:57.200 ,5,0,0.,4.8,0.,4.8,0.,4.8,0.,4.8
1981-08-30 21:21:02.000 ,5,0,0.,4.8,0.,4.8,0.,4.8,0.,4.8
1981-08-30 21:21:06.800 ,5,0,0.,4.8,0.,4.8,0.,4.8,0.,4.8
1981-08-30 21:21:11.600 ,5,0,0.,4.8,0.,4.8,0.,4.8,0.,4.8
1981-08-30 21:21:16.400 ,5,0,0.,4.8,0.,4.8,1.,4.8,0.,4.8
1981-08-30 21:21:21.200 ,5,0,0.,4.8,0.,4.8,0.,4.8,0.,4.8
1981-08-30 21:21:26.000 ,5,0,0.,4.8,0.,4.8,0.,4.8,0.,4.8
1981-08-30 21:21:30.800 ,5,0,1.,4.8,0.,4.8,0.,4.8,0.,4.8
1981-08-30 21:21:35.600 ,4,0,0.,4.8,0.,4.8,0.,4.8,0.,4.8
1981-08-30 21:21:40.400 ,4,0,1.,4.8,0.,4.8,0.,4.8,0.,4.8
1981-08-30 21:21:45.200 ,4,0,0.,4.8,0.,4.8,0.,4.8,0.,4.8
1981-08-30 21:21:50.000 ,4,0,0.,4.8,0.,4.8,0.,4.8,0.,4.8
1981-08-30 21:21:54.800 ,4,0,0.,4.8,0.,4.8,0.,4.8,0.,4.8
1981-08-30 21:21:59.600 ,4,0,0.,4.8,0.,4.8,0.,4.8,0.,4.8
1981-08-30 21:22:04.400 ,4,0,1.,4.8,0.,4.8,0.,4.8,0.,4.8
1981-08-30 21:22:09.200 ,4,0,2.,4.8,0.,4.8,0.,4.8,0.,4.8
1981-08-30 21:22:14.000 ,4,0,0.,4.8,0.,4.8,0.,4.8,0.,4.8
1981-08-30 21:22:18.800 ,4,0,1.,4.8,0.,4.8,0.,4.8,0.,4.8
1981-08-30 21:22:23.600 ,3,0,1.,4.8,0.,4.8,0.,4.8,0.,4.8
1981-08-30 21:22:28.400 ,3,0,1.,4.8,0.,4.8,0.,4.8,0.,4.8
1981-08-30 21:22:33.200 ,3,0,0.,4.8,0.,4.8,0.,4.8,0.,4.8
1981-08-30 21:22:38.000 ,3,0,0.,4.8,0.,4.8,0.,4.8,0.,4.8
1981-08-30 21:22:42.800 ,3,0,0.,4.8,0.,4.8,0.,4.8,0.,4.8
1981-08-30 21:22:47.600 ,3,0,0.,4.8,0.,4.8,0.,4.8,0.,4.8
1981-08-30 21:22:52.400 ,3,0,0.,4.8,0.,4.8,0.,4.8,0.,4.8
1981-08-30 21:22:57.200 ,3,0,0.,4.8,0.,4.8,0.,4.8,0.,4.8
1981-08-30 21:23:02.000 ,3,0,2.,4.8,0.,4.8,0.,4.8,0.,4.8
1981-08-30 21:23:06.800 ,3,0,0.,4.8,0.,4.8,0.,4.8,0.,4.8
1981-08-30 21:23:11.600 ,2,0,0.,4.8,0.,4.8,0.,4.8,0.,4.8
1981-08-30 21:23:16.400 ,2,0,0.,4.8,0.,4.8,0.,4.8,0.,4.8
1981-08-30 21:23:21.200 ,2,0,2.,4.8,0.,4.8,0.,4.8,0.,4.8
1981-08-30 21:23:26.000 ,2,0,1.,4.8,0.,4.8,0.,4.8,0.,4.8
1981-08-30 21:23:30.800 ,2,0,2.,4.8,0.,4.8,0.,4.8,0.,4.8
1981-08-30 21:23:35.600 ,2,0,0.,4.8,0.,4.8,0.,4.8,0.,4.8
1981-08-30 21:23:40.400 ,2,0,0.,4.8,0.,4.8,0.,4.8,0.,4.8
1981-08-30 21:23:45.200 ,2,0,0.,4.8,0.,4.8,0.,4.8,0.,4.8
1981-08-30 21:23:50.000 ,2,0,0.,4.8,0.,4.8,0.,4.8,0.,4.8
1981-08-30 21:23:54.800 ,2,0,0.,4.8,0.,4.8,1.,4.8,0.,4.8
1981-08-30 21:23:59.600 ,1,0,0.,4.8,0.,4.8,0.,4.8,0.,4.8
1981-08-30 21:24:04.400 ,1,0,0.,4.8,0.,4.8,0.,4.8,0.,4.8
1981-08-30 21:24:09.200 ,1,0,1.,4.8,0.,4.8,0.,4.8,0.,4.8
1981-08-30 21:24:14.000 ,1,0,2.,4.8,0.,4.8,0.,4.8,0.,4.8
1981-08-30 21:24:18.800 ,1,0,0.,4.8,0.,4.8,0.,4.8,0.,4.8
1981-08-30 21:24:23.600 ,1,0,0.,4.8,0.,4.8,0.,4.8,0.,4.8
1981-08-30 21:24:28.400 ,1,0,0.,4.8,0.,4.8,0.,4.8,0.,4.8
1981-08-30 21:24:33.200 ,1,0,0.,4.8,0.,4.8,0.,4.8,0.,4.8
1981-08-30 21:24:38.000 ,1,0,0.,4.8,0.,4.8,0.,4.8,0.,4.8
1981-08-30 21:24:42.800 ,1,0,2.,4.8,0.,4.8,0.,4.8,0.,4.8
1981-08-30 21:24:47.600 ,0,0,0.,4.8,0.,4.8,0.,4.8,0.,4.8
1981-08-30 21:24:52.400 ,0,0,0.,4.8,0.,4.8,1.,4.8,0.,4.8
1981-08-30 21:24:57.200 ,0,0,1.,4.8,0.,4.8,0.,4.8,0.,4.8
1981-08-30 21:25:02.000 ,0,0,1.,4.8,0.,4.8,0.,4.8,0.,4.8
1981-08-30 21:25:06.800 ,0,0,0.,4.8,0.,4.8,0.,4.8,0.,4.8
1981-08-30 21:25:11.600 ,0,0,1.,4.8,0.,4.8,0.,4.8,0.,4.8
1981-08-30 21:25:16.400 ,0,0,1.,4.8,0.,4.8,0.,4.8,0.,4.8
1981-08-30 21:25:21.200 ,0,0,0.,4.8,0.,4.8,0.,4.8,0.,4.8
1981-08-30 21:25:26.000 ,0,0,1.,4.8,0.,4.8,1.,4.8,0.,4.8
1981-08-30 21:25:30.800 ,0,0,0.,4.8,0.,4.8,0.,4.8,0.,4.8
1981-08-30 21:25:35.600 ,0,0,0.,4.8,0.,4.8,0.,4.8,0.,4.8
1981-08-30 21:25:40.400 ,0,0,3.,4.8,0.,4.8,0.,4.8,0.,4.8
1981-08-30 21:25:45.200 ,0,0,1.,4.8,0.,4.8,0.,4.8,0.,4.8
1981-08-30 21:25:50.000 ,0,0,1.,4.8,0.,4.8,0.,4.8,0.,4.8
1981-08-30 21:25:54.800 ,0,0,0.,4.8,0.,4.8,0.,4.8,0.,4.8
1981-08-30 21:25:59.600 ,0,0,0.,4.8,0.,4.8,0.,4.8,0.,4.8
1981-08-30 21:26:04.400 ,0,0,1.,4.8,0.,4.8,0.,4.8,0.,4.8
1981-08-30 21:26:09.200 ,0,0,1.,4.8,0.,4.8,0.,4.8,0.,4.8
1981-08-30 21:26:14.000 ,0,0,0.,4.8,0.,4.8,0.,4.8,0.,4.8
1981-08-30 21:26:18.800 ,0,0,1.,4.8,0.,4.8,1.,4.8,0.,4.8
1981-08-30 21:26:23.600 ,1,0,1.,4.8,0.,4.8,0.,4.8,0.,4.8
1981-08-30 21:26:28.400 ,1,0,0.,4.8,0.,4.8,0.,4.8,0.,4.8
1981-08-30 21:26:33.200 ,1,0,0.,4.8,0.,4.8,0.,4.8,0.,4.8
1981-08-30 21:26:38.000 ,1,0,0.,4.8,0.,4.8,0.,4.8,0.,4.8
1981-08-30 21:26:42.800 ,1,0,2.,4.8,0.,4.8,0.,4.8,0.,4.8
1981-08-30 21:26:47.600 ,1,0,0.,4.8,0.,4.8,0.,4.8,0.,4.8
1981-08-30 21:26:52.400 ,1,0,0.,4.8,0.,4.8,0.,4.8,0.,4.8
1981-08-30 21:26:57.200 ,1,0,0.,4.8,0.,4.8,0.,4.8,0.,4.8
1981-08-30 21:27:02.000 ,1,0,0.,4.8,0.,4.8,0.,4.8,0.,4.8
1981-08-30 21:27:06.800 ,1,0,0.,4.8,0.,4.8,0.,4.8,0.,4.8
1981-08-30 21:27:11.600 ,2,0,1.,4.8,0.,4.8,0.,4.8,1.,4.8
1981-08-30 21:27:16.400 ,2,0,0.,4.8,0.,4.8,0.,4.8,0.,4.8
1981-08-30 21:27:21.200 ,2,0,1.,4.8,0.,4.8,0.,4.8,0.,4.8
1981-08-30 21:27:26.000 ,2,0,0.,4.8,0.,4.8,0.,4.8,0.,4.8
1981-08-30 21:27:30.800 ,2,0,0.,4.8,0.,4.8,0.,4.8,0.,4.8
1981-08-30 21:27:35.600 ,2,0,0.,4.8,0.,4.8,0.,4.8,0.,4.8
1981-08-30 21:27:40.400 ,2,0,0.,4.8,0.,4.8,0.,4.8,0.,4.8
1981-08-30 21:27:45.200 ,2,0,0.,4.8,0.,4.8,0.,4.8,0.,4.8
1981-08-30 21:27:50.000 ,2,0,1.,4.8,0.,4.8,0.,4.8,0.,4.8
1981-08-30 21:27:54.800 ,2,0,2.,4.8,0.,4.8,0.,4.8,0.,4.8
1981-08-30 21:27:59.600 ,3,0,0.,4.8,0.,4.8,1.,4.8,0.,4.8
1981-08-30 21:28:04.400 ,3,0,0.,4.8,0.,4.8,0.,4.8,0.,4.8
1981-08-30 21:28:09.200 ,3,0,0.,4.8,1.,4.8,1.,4.8,0.,4.8
1981-08-30 21:28:14.000 ,3,0,0.,4.8,0.,4.8,0.,4.8,0.,4.8
1981-08-30 21:28:18.800 ,3,0,0.,4.8,0.,4.8,0.,4.8,0.,4.8
1981-08-30 21:28:23.600 ,4,0,0.,4.8,0.,4.8,0.,4.8,0.,4.8
1981-08-30 21:28:28.400 ,4,0,2.,4.8,0.,4.8,0.,4.8,0.,4.8
1981-08-30 21:28:33.200 ,4,0,0.,4.8,0.,4.8,1.,4.8,0.,4.8
1981-08-30 21:28:38.000 ,4,0,0.,4.8,0.,4.8,1.,4.8,0.,4.8
1981-08-30 21:28:42.800 ,4,0,0.,4.8,0.,4.8,0.,4.8,0.,4.8
1981-08-30 21:28:47.600 ,5,0,0.,4.8,0.,4.8,0.,4.8,0.,4.8
1981-08-30 21:28:52.400 ,5,0,1.,4.8,0.,4.8,0.,4.8,0.,4.8
1981-08-30 21:28:57.200 ,5,0,0.,4.8,0.,4.8,0.,4.8,0.,4.8
1981-08-30 21:29:02.000 ,5,0,1.,4.8,0.,4.8,0.,4.8,0.,4.8
1981-08-30 21:29:06.800 ,5,0,0.,4.8,1.,4.8,0.,4.8,0.,4.8
1981-08-30 21:29:11.600 ,6,0,1.,4.8,0.,4.8,0.,4.8,0.,4.8
1981-08-30 21:29:16.400 ,6,0,2.,4.8,0.,4.8,0.,4.8,0.,4.8
1981-08-30 21:29:21.200 ,6,0,0.,4.8,0.,4.8,0.,4.8,0.,4.8
1981-08-30 21:29:26.000 ,6,0,2.,4.8,0.,4.8,0.,4.8,0.,4.8
1981-08-30 21:29:30.800 ,6,0,1.,4.8,0.,4.8,0.,4.8,0.,4.8
1981-08-30 21:29:35.600 ,7,0,0.,4.8,0.,4.8,0.,4.8,0.,4.8
1981-08-30 21:29:40.400 ,7,0,0.,4.8,0.,4.8,0.,4.8,0.,4.8
1981-08-30 21:29:45.200 ,7,0,0.,4.8,0.,4.8,0.,4.8,0.,4.8
1981-08-30 21:29:50.000 ,7,0,0.,4.8,0.,4.8,0.,4.8,0.,4.8
1981-08-30 21:29:54.800 ,7,0,0.,4.8,0.,4.8,0.,4.8,0.,4.8
1981-08-30 21:29:59.600 ,7,0,2.,4.8,0.,4.8,0.,4.8,0.,4.8
1981-08-30 21:30:04.400 ,7,0,0.,4.8,0.,4.8,0.,4.8,0.,4.8
1981-08-30 21:30:09.200 ,7,0,0.,4.8,1.,4.8,0.,4.8,0.,4.8
1981-08-30 21:30:14.000 ,7,0,0.,4.8,0.,4.8,0.,4.8,0.,4.8
1981-08-30 21:30:18.800 ,7,0,1.,4.8,0.,4.8,0.,4.8,0.,4.8
1981-08-30 21:30:23.600 ,6,0,0.,4.8,0.,4.8,1.,4.8,0.,4.8
1981-08-30 21:30:28.400 ,6,0,1.,4.8,0.,4.8,0.,4.8,0.,4.8
1981-08-30 21:30:33.200 ,6,0,1.,4.8,0.,4.8,0.,4.8,0.,4.8
1981-08-30 21:30:38.000 ,6,0,1.,4.8,0.,4.8,0.,4.8,0.,4.8
1981-08-30 21:30:42.800 ,6,0,0.,4.8,0.,4.8,0.,4.8,0.,4.8
1981-08-30 21:30:47.600 ,5,0,0.,4.8,0.,4.8,0.,4.8,0.,4.8
1981-08-30 21:30:52.400 ,5,0,0.,4.8,0.,4.8,0.,4.8,0.,4.8
1981-08-30 21:30:57.200 ,5,0,1.,4.8,0.,4.8,0.,4.8,0.,4.8
1981-08-30 21:31:02.000 ,5,0,1.,4.8,0.,4.8,0.,4.8,0.,4.8
1981-08-30 21:31:06.800 ,5,0,0.,4.8,0.,4.8,0.,4.8,0.,4.8
1981-08-30 21:31:11.600 ,4,0,2.,4.8,0.,4.8,0.,4.8,0.,4.8
1981-08-30 21:31:16.400 ,4,0,0.,4.8,0.,4.8,0.,4.8,0.,4.8
1981-08-30 21:31:21.200 ,4,0,1.,4.8,0.,4.8,0.,4.8,0.,4.8
1981-08-30 21:31:26.000 ,4,0,2.,4.8,0.,4.8,0.,4.8,0.,4.8
1981-08-30 21:31:30.800 ,4,0,0.,4.8,0.,4.8,0.,4.8,0.,4.8
1981-08-30 21:31:35.600 ,3,0,1.,4.8,0.,4.8,0.,4.8,0.,4.8
1981-08-30 21:31:40.400 ,3,0,0.,4.8,0.,4.8,0.,4.8,0.,4.8
1981-08-30 21:31:45.200 ,3,0,0.,4.8,0.,4.8,0.,4.8,0.,4.8
1981-08-30 21:31:50.000 ,3,0,1.,4.8,0.,4.8,0.,4.8,0.,4.8
1981-08-30 21:31:54.800 ,3,0,0.,4.8,0.,4.8,0.,4.8,0.,4.8
1981-08-30 21:31:59.600 ,2,0,0.,4.8,0.,4.8,1.,4.8,0.,4.8
1981-08-30 21:32:04.400 ,2,0,0.,4.8,0.,4.8,1.,4.8,0.,4.8
1981-08-30 21:32:09.200 ,2,0,1.,4.8,0.,4.8,0.,4.8,0.,4.8
1981-08-30 21:32:14.000 ,2,0,0.,4.8,0.,4.8,0.,4.8,0.,4.8
1981-08-30 21:32:18.800 ,2,0,0.,4.8,0.,4.8,1.,4.8,0.,4.8
1981-08-30 21:32:23.600 ,1,0,0.,4.8,0.,4.8,0.,4.8,0.,4.8
1981-08-30 21:32:28.400 ,1,0,0.,4.8,0.,4.8,0.,4.8,0.,4.8
1981-08-30 21:32:33.200 ,1,0,0.,4.8,0.,4.8,0.,4.8,0.,4.8
1981-08-30 21:32:38.000 ,1,0,1.,4.8,0.,4.8,0.,4.8,0.,4.8
1981-08-30 21:32:42.800 ,1,0,0.,4.8,0.,4.8,0.,4.8,0.,4.8
1981-08-30 21:32:47.600 ,0,0,3.,4.8,0.,4.8,0.,4.8,0.,4.8
1981-08-30 21:32:52.400 ,0,0,0.,4.8,0.,4.8,0.,4.8,0.,4.8
1981-08-30 21:32:57.200 ,0,0,0.,4.8,0.,4.8,0.,4.8,0.,4.8
1981-08-30 21:33:02.000 ,0,0,4.,4.8,0.,4.8,0.,4.8,0.,4.8
1981-08-30 21:33:06.800 ,0,0,2.,4.8,0.,4.8,1.,4.8,0.,4.8
1981-08-30 21:33:11.600 ,0,0,0.,4.8,0.,4.8,0.,4.8,0.,4.8
1981-08-30 21:33:16.400 ,0,0,3.,4.8,0.,4.8,0.,4.8,0.,4.8
1981-08-30 21:33:21.200 ,0,0,0.,4.8,0.,4.8,0.,4.8,0.,4.8
1981-08-30 21:33:26.000 ,0,0,1.,4.8,0.,4.8,0.,4.8,0.,4.8
1981-08-30 21:33:30.800 ,0,0,0.,4.8,0.,4.8,0.,4.8,0.,4.8
1981-08-30 21:33:35.600 ,1,0,0.,4.8,0.,4.8,0.,4.8,0.,4.8
1981-08-30 21:33:40.400 ,1,0,0.,4.8,0.,4.8,0.,4.8,0.,4.8
1981-08-30 21:33:45.200 ,1,0,0.,4.8,0.,4.8,1.,4.8,0.,4.8
1981-08-30 21:33:50.000 ,1,0,0.,4.8,0.,4.8,0.,4.8,0.,4.8